[[{"header":{"parameterUnit":"m.s-1","parameterCategory":1,"la1":30.2991,"la2":30.254,"lo1":-89.0895,"lo2":-89.0444,"dy":0.0017,"dx":0.0017,"nx":28,"ny":28,"refTime":"2025-12-30T09:00:00:Z","depth":0,"parameterNumber":2,"parameterNumberName":"U-component_of_WINDS"},"data":[0,0,0,0,0,0,0,0,0,0,0,0,0,0,0,0,0,0,0,0,0,0,0,0,0,0,0,0,0,0,0,0,0,0,0,0,0,0,0,0,0,0,0,0,0,0,0,0,0,0,0,0,0,0,0,0,0,0,1.751,1.7509,0,1.7494,1.7494,1.7494,1.7469,1.7468,1.7468,1.7467,1.7451,1.7451,1.7451,0,0,0,0,0,0,0,0,0,0,0,0,0,1.7517,1.7517,1.751,1.7509,1.7509,1.7494,1.7494,1.7494,1.7469,1.7468,1.7468,1.7467,1.7451,1.7451,1.7451,0,0,0,0,0,0,0,0,0,0,0,0,0,1.7509,1.7517,1.751,1.7495,1.7493,1.7495,1.7494,1.7494,1.7469,1.7468,1.7468,1.7467,1.7451,1.7451,1.7451,1.7465,0,0,1.7451,1.7451,0,0,0,0,0,0,0,0,1.7509,1.7508,1.7497,1.7496,1.7494,1.7483,1.7491,1.7484,1.7469,1.7478,1.7467,1.7467,1.7462,1.7461,1.746,1.7464,1.7463,1.7451,1.7451,1.7451,1.7451,0,0,0,0,0,0,0,1.751,1.7509,1.7504,1.7497,1.7495,1.7489,1.7487,1.7489,1.7474,1.7477,1.7475,1.7474,1.7461,1.746,1.7459,1.7463,1.7451,1.7451,1.7451,1.7451,1.7479,1.7479,0,0,0,0,0,0,1.7513,1.751,1.7504,1.7503,1.75,1.7489,1.7487,1.7487,1.7474,1.7471,1.7475,1.7473,1.746,1.7459,1.7458,1.7474,1.7451,1.7451,1.7451,1.7478,1.7479,1.748,0,0,0,0,0,0,1.7513,1.7512,1.7505,1.7506,1.7504,1.749,1.749,1.7487,1.7486,1.7472,1.7469,1.7476,1.7459,1.7458,1.7464,1.7473,1.7451,1.7451,1.7477,1.7478,1.7479,1.7505,0,0,0,0,0,0,1.7513,1.7513,1.7518,1.7506,1.7504,1.751,1.7491,1.7487,1.7486,1.7484,1.7473,1.747,1.7459,1.7464,1.7464,1.7472,1.7451,1.7476,1.7478,1.7479,1.7503,1.7507,1.751,0,0,0,0,0,1.7513,1.7525,1.7518,1.7517,1.7511,1.7511,1.751,1.7497,1.7487,1.7492,1.7483,1.7471,1.7472,1.7464,1.7464,1.7473,1.7475,1.7477,1.7479,1.7502,1.7506,1.751,0,0,0,0,0,0,1.7537,1.7523,1.7515,1.7524,1.7519,1.7506,1.7512,1.7502,1.7499,1.7497,1.7481,1.7479,1.7486,1.748,1.7472,1.7486,1.7472,1.7474,1.7489,1.7494,1.7497,1.7498,1.7451,0,0,0,0,0,1.7544,1.7545,1.7533,1.7542,1.754,1.7527,1.7526,1.7517,1.7511,1.7508,1.75,1.7494,1.7494,1.7494,1.7492,1.7503,1.75,1.7509,1.7512,1.7515,1.7516,1.7522,1.7526,1.7485,1.7485,1.7485,0,0,1.7557,1.7549,1.7551,1.7546,1.7541,1.7543,1.7525,1.7527,1.7529,1.7509,1.7513,1.7507,1.75,1.7508,1.7511,1.7503,1.7527,1.7517,1.752,1.7519,1.7524,1.7528,1.7531,1.7486,1.7486,1.7486,0,0,1.7581,1.7576,1.7582,1.7578,1.7571,1.7563,1.7564,1.7554,1.7549,1.7554,1.7539,1.754,1.7539,1.7535,1.7533,1.7557,1.7545,1.7557,1.7574,1.758,1.7583,1.7586,1.7594,1.7597,1.7559,1.7559,1.7559,0,1.7598,1.76,1.7587,1.7591,1.7589,1.7572,1.7579,1.7575,1.7568,1.7567,1.7559,1.7558,1.7552,1.7559,1.7565,1.7564,1.7565,1.7557,1.7584,1.7586,1.7588,1.7596,1.7599,1.756,1.756,1.756,1.756,0,1.7621,1.7623,1.7629,1.7623,1.7622,1.7627,1.7615,1.7616,1.7607,1.76,1.7605,1.7597,1.7594,1.7596,1.7587,1.7601,1.7597,1.7587,1.7571,1.7594,1.7601,1.7604,1.7562,1.7562,1.7561,1.7561,0,0,1.7658,1.7646,1.7649,1.7646,1.7638,1.7639,1.7644,1.7641,1.7642,1.7638,1.7641,1.7642,1.7633,1.763,1.7621,1.7626,1.7645,1.7615,1.7614,1.762,1.7661,1.7668,1.7672,1.7638,1.7639,1.7639,1.7661,0,1.768,1.7687,1.7677,1.7686,1.7688,1.7673,1.7677,1.7672,1.7666,1.7666,1.7659,1.7659,1.7647,1.7646,1.765,1.7642,1.7653,1.764,1.7641,1.7641,1.7642,1.7675,1.7683,1.7704,1.7664,1.7664,1.7665,0,1.7706,1.7704,1.7714,1.7706,1.7706,1.771,1.7707,1.7708,1.7703,1.7698,1.7696,1.7685,1.7689,1.7676,1.7682,1.7673,1.7673,1.7669,1.767,1.7668,1.7653,1.7674,1.7711,1.7713,1.7669,1.7669,1.7668,0,1.7732,1.7732,1.7738,1.7736,1.7727,1.773,1.7726,1.772,1.772,1.7717,1.7717,1.7715,1.7714,1.7713,1.7702,1.7694,1.7709,1.7695,1.7705,1.7705,1.7707,1.7707,1.7743,1.7709,1.7709,1.7709,1.7709,0,1.7757,1.7763,1.7749,1.7753,1.776,1.7748,1.7755,1.775,1.7745,1.7747,1.7734,1.7737,1.7723,1.7724,1.7716,1.7722,1.7721,1.7717,1.7715,1.7718,1.7718,1.7716,1.7714,1.771,1.771,1.7709,1.7709,0,1.7786,1.7777,1.7782,1.7773,1.7771,1.7777,1.7769,1.7772,1.7766,1.7769,1.7769,1.7758,1.7759,1.7749,1.7747,1.7742,1.7751,1.7746,1.7753,1.7751,1.7761,1.776,1.7796,1.78,1.7765,1.7765,1.7765,0,1.7802,1.7807,1.7799,1.7799,1.7796,1.7798,1.7798,1.7786,1.7786,1.7782,1.7785,1.7785,1.7784,1.7786,1.7778,1.7777,1.7772,1.7785,1.7771,1.7775,1.7771,1.7771,1.7771,1.7787,1.7788,1.7788,1.7788,0,1.7831,1.7827,1.7826,1.7825,1.7825,1.7824,1.7821,1.7823,1.7811,1.7811,1.7812,1.7812,1.7811,1.7811,1.7808,1.7805,1.7794,1.7793,1.7795,1.7797,1.7801,1.7798,1.7759,1.7792,1.7791,1.7791,1.7791,1.7791,1.7853,1.7857,1.7852,1.7853,1.785,1.7848,1.7851,1.7845,1.7845,1.7844,1.7838,1.784,1.7835,1.7831,1.7828,1.783,1.7823,1.7826,1.7827,1.7828,1.7829,1.7802,1.7829,1.7829,1.7829,1.7829,1.7829,0,1.7881,1.7878,1.7879,1.7876,1.7877,1.7868,1.7865,1.7866,1.7868,1.7865,1.7865,1.7866,1.7866,1.7859,1.7858,1.7861,1.7856,1.7861,1.786,1.7859,1.7835,1.7833,1.7865,1.7865,1.7865,1.7865,1.7865,1.7865,1.7896,1.7901,1.7897,1.7901,1.7897,1.7899,1.7899,1.7897,1.7894,1.7896,1.7897,1.7892,1.7888,1.7887,1.7887,1.7884,1.7884,1.7891,1.7887,1.7864,1.7861,1.7858,1.7855,1.7891,1.7891,1.791,1.7911,1.7911]},{"header":{"parameterUnit":"m.s-1","parameterCategory":1,"la1":30.2991,"la2":30.254,"lo1":-89.0895,"lo2":-89.0444,"dy":0.0017,"dx":0.0017,"nx":28,"ny":28,"refTime":"2025-12-30T09:00:00:Z","depth":0,"parameterNumber":3,"parameterNumberName":"V-component_of_WINDS"},"data":[0,0,0,0,0,0,0,0,0,0,0,0,0,0,0,0,0,0,0,0,0,0,0,0,0,0,0,0,0,0,0,0,0,0,0,0,0,0,0,0,0,0,0,0,0,0,0,0,0,0,0,0,0,0,0,0,0,0,-2.8253,-2.8255,0,-2.8398,-2.8399,-2.8401,-2.8386,-2.8384,-2.8381,-2.8379,-2.8528,-2.8534,-2.854,0,0,0,0,0,0,0,0,0,0,0,0,0,-2.7964,-2.797,-2.8253,-2.8255,-2.8257,-2.8398,-2.84,-2.8402,-2.8386,-2.8384,-2.8381,-2.8378,-2.8526,-2.8533,-2.854,0,0,0,0,0,0,0,0,0,0,0,0,0,-2.8097,-2.7971,-2.8253,-2.8266,-2.8269,-2.8397,-2.84,-2.8402,-2.8387,-2.8383,-2.838,-2.8377,-2.8523,-2.8532,-2.8541,-2.8666,0,0,-2.8569,-2.8573,0,0,0,0,0,0,0,0,-2.809,-2.8108,-2.8262,-2.8265,-2.8268,-2.837,-2.8352,-2.8491,-2.8388,-2.8342,-2.8379,-2.8375,-2.8478,-2.8491,-2.8525,-2.8673,-2.8679,-2.857,-2.8575,-2.8579,-2.8582,0,0,0,0,0,0,0,-2.8081,-2.8102,-2.831,-2.8264,-2.8268,-2.8265,-2.828,-2.8378,-2.8428,-2.8346,-2.8345,-2.8362,-2.8479,-2.8517,-2.8529,-2.8681,-2.857,-2.8578,-2.8583,-2.8587,-2.8941,-2.8944,0,0,0,0,0,0,-2.8068,-2.8094,-2.8306,-2.8315,-2.8169,-2.8273,-2.829,-2.8341,-2.8426,-2.8436,-2.8365,-2.8361,-2.8503,-2.8518,-2.8534,-2.8687,-2.8579,-2.8588,-2.8593,-2.8937,-2.8941,-2.8946,0,0,0,0,0,0,-2.8062,-2.8087,-2.83,-2.8204,-2.8231,-2.8282,-2.8339,-2.8346,-2.8383,-2.8441,-2.845,-2.8394,-2.8501,-2.8521,-2.8634,-2.8692,-2.8592,-2.86,-2.8932,-2.8938,-2.8944,-2.8994,0,0,0,0,0,0,-2.8054,-2.8085,-2.8133,-2.8205,-2.8236,-2.8397,-2.8343,-2.8351,-2.8399,-2.8395,-2.8471,-2.848,-2.85,-2.862,-2.8643,-2.8703,-2.8607,-2.8927,-2.8935,-2.8942,-2.8987,-2.9001,-2.9013,0,0,0,0,0,-2.8043,-2.8141,-2.8135,-2.8161,-2.8297,-2.84,-2.8418,-2.8438,-2.8404,-2.8452,-2.849,-2.8478,-2.8682,-2.8632,-2.8657,-2.8721,-2.8924,-2.8933,-2.8941,-2.8982,-2.8998,-2.9012,0,0,0,0,0,0,-2.8073,-2.815,-2.8145,-2.8269,-2.8328,-2.8398,-2.8459,-2.8455,-2.8526,-2.8519,-2.8541,-2.8559,-2.8673,-2.8708,-2.8651,-2.8847,-2.8798,-2.8812,-2.882,-2.8836,-2.8849,-2.8839,-2.8615,0,0,0,0,0,-2.8094,-2.8171,-2.8235,-2.8338,-2.8368,-2.8409,-2.8454,-2.8465,-2.8528,-2.8553,-2.8598,-2.866,-2.8738,-2.8789,-2.8864,-2.8992,-2.9009,-2.9048,-2.9061,-2.9071,-2.9084,-2.9156,-2.9175,-2.8975,-2.8975,-2.8974,0,0,-2.8138,-2.819,-2.8237,-2.8345,-2.8392,-2.8473,-2.843,-2.8516,-2.8576,-2.8566,-2.8676,-2.8711,-2.8781,-2.8903,-2.8958,-2.8935,-2.9142,-2.9082,-2.909,-2.9097,-2.9167,-2.9186,-2.9203,-2.8981,-2.898,-2.8979,0,0,-2.826,-2.8306,-2.8398,-2.8446,-2.8519,-2.8545,-2.8567,-2.8638,-2.8662,-2.8772,-2.8766,-2.8838,-2.8971,-2.9022,-2.9066,-2.9208,-2.92,-2.9231,-2.9298,-2.9368,-2.9384,-2.9398,-2.9451,-2.9469,-2.9243,-2.9244,-2.9244,0,-2.8305,-2.8426,-2.8445,-2.8534,-2.8582,-2.8576,-2.867,-2.8716,-2.8809,-2.8843,-2.8815,-2.8985,-2.9031,-2.9165,-2.92,-2.9235,-2.9262,-2.9224,-2.938,-2.9394,-2.9408,-2.9458,-2.9478,-2.9247,-2.9247,-2.9246,-2.9246,0,-2.848,-2.8564,-2.8629,-2.872,-2.8775,-2.8866,-2.89,-2.8953,-2.8959,-2.8989,-2.9102,-2.9158,-2.9245,-2.9277,-2.9284,-2.9413,-2.9397,-2.9375,-2.9326,-2.943,-2.9478,-2.9497,-2.9252,-2.9251,-2.925,-2.9249,0,0,-2.8625,-2.8726,-2.875,-2.8792,-2.8871,-2.8937,-2.9027,-2.9113,-2.9159,-2.9224,-2.9301,-2.9415,-2.9395,-2.9444,-2.9456,-2.9518,-2.963,-2.9488,-2.949,-2.9514,-2.9778,-2.9796,-2.9818,-2.9624,-2.9628,-2.9631,-2.9773,0,-2.8756,-2.8917,-2.8937,-2.908,-2.9159,-2.9155,-2.9234,-2.9292,-2.9322,-2.9393,-2.9427,-2.9508,-2.9474,-2.9505,-2.9565,-2.9603,-2.9683,-2.9593,-2.9698,-2.9702,-2.9683,-2.9843,-2.9862,-2.9993,-2.9792,-2.9795,-2.9797,0,-2.8931,-2.9001,-2.9152,-2.9222,-2.9256,-2.9327,-2.9408,-2.9476,-2.9542,-2.9559,-2.9615,-2.962,-2.9714,-2.9661,-2.9792,-2.973,-2.9774,-2.98,-2.9805,-2.9817,-2.9757,-2.9861,-3.0035,-3.0056,-2.9826,-2.9824,-2.9822,0,-2.9024,-2.9156,-2.9264,-2.9299,-2.9384,-2.9434,-2.9472,-2.9534,-2.9585,-2.9655,-2.9689,-2.9769,-2.9813,-2.9876,-2.9902,-2.986,-3.0033,-2.9981,-3.0052,-3.0051,-3.009,-3.0087,-3.0275,-3.0115,-3.0115,-3.0114,-3.0114,0,-2.9169,-2.9262,-2.9307,-2.9374,-2.9478,-2.9501,-2.9604,-2.9639,-2.9695,-2.9769,-2.977,-2.9839,-2.9869,-2.9944,-2.9965,-3.0072,-3.0091,-3.0109,-3.0114,-3.011,-3.0108,-3.0141,-3.0133,-3.0119,-3.0118,-3.0117,-3.0116,0,-2.9292,-2.9325,-2.9443,-2.9514,-2.9533,-2.9608,-2.9668,-2.9733,-2.9762,-2.9856,-2.988,-2.9926,-3.0014,-3.0046,-3.0153,-3.0167,-3.0292,-3.0288,-3.027,-3.0272,-3.0341,-3.0335,-3.0558,-3.059,-3.0406,-3.0408,-3.041,0,-2.9384,-2.9455,-2.9534,-2.9583,-2.9623,-2.9703,-2.9755,-2.978,-2.9834,-2.9915,-2.9971,-3.0058,-3.0129,-3.027,-3.0314,-3.0396,-3.0395,-3.0468,-3.0408,-3.0402,-3.0399,-3.0395,-3.0404,-3.048,-3.0482,-3.0483,-3.0484,0,-2.9543,-2.9557,-2.9631,-2.9713,-2.9775,-2.984,-2.9903,-2.9943,-2.9978,-3.0039,-3.0129,-3.0185,-3.0294,-3.0381,-3.0466,-3.0505,-3.0502,-3.0503,-3.0524,-3.0522,-3.0509,-3.0519,-3.0303,-3.0498,-3.0497,-3.0496,-3.0495,-3.0494,-2.9655,-2.9719,-2.9785,-2.9869,-2.9919,-2.9978,-3.0043,-3.0081,-3.0157,-3.0248,-3.0258,-3.0355,-3.0421,-3.0534,-3.0576,-3.0653,-3.0634,-3.0664,-3.0672,-3.0679,-3.0686,-3.0495,-3.0668,-3.0668,-3.0668,-3.0668,-3.0667,0,-2.9817,-2.9859,-2.9936,-3.0024,-3.0091,-3.0081,-3.015,-3.0207,-3.0292,-3.0354,-3.0424,-3.0528,-3.0613,-3.0664,-3.075,-3.0802,-3.0802,-3.0823,-3.0821,-3.083,-3.0697,-3.0671,-3.0822,-3.0822,-3.0821,-3.0821,-3.0821,-3.0821,-2.9909,-3.0018,-3.0039,-3.0173,-3.0215,-3.031,-3.0351,-3.0406,-3.0455,-3.0572,-3.0643,-3.0675,-3.0733,-3.0823,-3.0901,-3.0913,-3.0946,-3.0969,-3.098,-3.0855,-3.0839,-3.0824,-3.08,-3.0975,-3.0975,-3.1108,-3.1109,-3.111]}]]